[[{"header":{"parameterUnit":"m.s-1","parameterCategory":1,"la1":30.2991,"la2":30.254,"lo1":-89.0895,"lo2":-89.0444,"dy":0.0017,"dx":0.0017,"nx":28,"ny":28,"refTime":"2025-05-25T21:00:00:Z","depth":0,"parameterNumber":2,"parameterNumberName":"U-component_of_WINDS"},"data":[0,0,0,0,0,0,0,0,0,0,0,0,0,0,0,0,0,0,0,0,0,0,0,0,0,0,0,0,0,0,0,0,0,0,0,0,0,0,0,0,0,0,0,0,0,0,0,0,0,0,0,0,0,0,0,0,0,0,-0.4247,-0.4247,0,-0.4308,-0.4309,-0.431,-0.4346,-0.4346,-0.4347,-0.4347,-0.4413,-0.4414,-0.4416,0,0,0,0,0,0,0,0,0,0,0,0,0,-0.4164,-0.4165,-0.4247,-0.4247,-0.4248,-0.4308,-0.4309,-0.431,-0.4346,-0.4346,-0.4347,-0.4347,-0.4412,-0.4414,-0.4416,0,0,0,0,0,0,0,0,0,0,0,0,0,-0.421,-0.4166,-0.4247,-0.4273,-0.4276,-0.4308,-0.4309,-0.431,-0.4346,-0.4346,-0.4347,-0.4347,-0.4412,-0.4414,-0.4416,-0.4427,0,0,-0.4424,-0.4425,0,0,0,0,0,0,0,0,-0.4208,-0.4213,-0.4269,-0.4272,-0.4275,-0.432,-0.4304,-0.4349,-0.4346,-0.432,-0.4347,-0.4347,-0.4382,-0.4387,-0.4398,-0.443,-0.4433,-0.4424,-0.4425,-0.4426,-0.4427,0,0,0,0,0,0,0,-0.4204,-0.4211,-0.4271,-0.427,-0.4273,-0.4284,-0.4291,-0.4313,-0.4349,-0.4322,-0.4325,-0.4332,-0.4384,-0.4395,-0.44,-0.4434,-0.4424,-0.4426,-0.4428,-0.4428,-0.4479,-0.4479,0,0,0,0,0,0,-0.4196,-0.4208,-0.4269,-0.4273,-0.4241,-0.4285,-0.4293,-0.4305,-0.4349,-0.4356,-0.4331,-0.4333,-0.4391,-0.4397,-0.4402,-0.4418,-0.4426,-0.4429,-0.443,-0.4479,-0.4479,-0.4479,0,0,0,0,0,0,-0.4194,-0.4202,-0.4267,-0.4241,-0.425,-0.4286,-0.43,-0.4306,-0.4318,-0.4356,-0.4363,-0.4336,-0.4392,-0.4399,-0.4421,-0.4421,-0.443,-0.4432,-0.448,-0.4479,-0.4479,-0.445,0,0,0,0,0,0,-0.4192,-0.4201,-0.4204,-0.4241,-0.4252,-0.4283,-0.43,-0.4307,-0.4322,-0.4325,-0.4362,-0.4369,-0.4392,-0.4417,-0.4423,-0.4424,-0.4434,-0.448,-0.448,-0.4479,-0.4451,-0.4448,-0.4446,0,0,0,0,0,-0.4189,-0.4193,-0.4204,-0.4211,-0.4256,-0.4283,-0.4289,-0.4315,-0.4322,-0.4326,-0.4351,-0.4368,-0.442,-0.4419,-0.4426,-0.4428,-0.448,-0.448,-0.4479,-0.4452,-0.4449,-0.4447,0,0,0,0,0,0,-0.4156,-0.4199,-0.4211,-0.4227,-0.4251,-0.4289,-0.4295,-0.4311,-0.4334,-0.4336,-0.4368,-0.4377,-0.4395,-0.4414,-0.4412,-0.4442,-0.4452,-0.4453,-0.4428,-0.4426,-0.4424,-0.4419,-0.4436,0,0,0,0,0,-0.4151,-0.4167,-0.4204,-0.4215,-0.4227,-0.4259,-0.4271,-0.4289,-0.4316,-0.4326,-0.4352,-0.4378,-0.44,-0.4414,-0.4437,-0.4454,-0.4463,-0.4459,-0.4457,-0.4455,-0.4456,-0.4468,-0.4466,-0.4478,-0.4478,-0.4478,0,0,-0.414,-0.4165,-0.4174,-0.4209,-0.423,-0.4248,-0.4267,-0.4285,-0.4299,-0.4329,-0.4351,-0.4371,-0.4402,-0.4422,-0.4432,-0.4438,-0.4455,-0.4455,-0.4453,-0.4455,-0.4467,-0.4466,-0.4465,-0.4478,-0.4478,-0.4478,0,0,-0.4129,-0.4149,-0.4161,-0.4181,-0.4212,-0.4234,-0.4237,-0.4272,-0.4287,-0.4309,-0.4333,-0.4351,-0.4388,-0.441,-0.4426,-0.4425,-0.4442,-0.4431,-0.442,-0.4431,-0.443,-0.443,-0.443,-0.443,-0.4432,-0.4432,-0.4432,0,-0.4112,-0.4138,-0.4165,-0.4182,-0.4198,-0.4226,-0.4239,-0.4258,-0.4294,-0.4305,-0.4312,-0.436,-0.4383,-0.4409,-0.4409,-0.442,-0.4426,-0.4427,-0.4428,-0.4428,-0.4428,-0.4428,-0.4428,-0.443,-0.4431,-0.4431,-0.4431,0,-0.4116,-0.4134,-0.4141,-0.4175,-0.4191,-0.4206,-0.4237,-0.425,-0.4268,-0.4289,-0.4313,-0.4341,-0.4371,-0.4378,-0.4395,-0.4407,-0.441,-0.4422,-0.4433,-0.4424,-0.4426,-0.4426,-0.4428,-0.4429,-0.4429,-0.443,0,0,-0.4085,-0.4135,-0.4137,-0.4153,-0.419,-0.4205,-0.4222,-0.425,-0.4262,-0.4287,-0.4303,-0.4335,-0.4346,-0.4364,-0.4384,-0.4394,-0.4393,-0.4405,-0.4406,-0.4402,-0.4408,-0.4399,-0.4399,-0.4404,-0.4404,-0.4405,-0.4406,0,-0.408,-0.411,-0.4136,-0.4157,-0.4176,-0.4203,-0.4218,-0.4243,-0.4264,-0.4284,-0.4307,-0.4329,-0.4343,-0.4354,-0.4365,-0.439,-0.4394,-0.4391,-0.442,-0.4421,-0.4411,-0.44,-0.439,-0.4389,-0.4407,-0.4407,-0.4407,0,-0.4078,-0.4101,-0.4124,-0.416,-0.4168,-0.4181,-0.421,-0.4228,-0.4257,-0.4272,-0.4293,-0.4314,-0.4335,-0.4344,-0.4374,-0.4371,-0.4385,-0.4399,-0.44,-0.4404,-0.4413,-0.4403,-0.439,-0.439,-0.4408,-0.4408,-0.4408,0,-0.4053,-0.4091,-0.411,-0.4123,-0.4165,-0.4173,-0.4192,-0.4221,-0.4237,-0.4263,-0.4274,-0.4301,-0.4317,-0.4339,-0.4367,-0.4371,-0.4395,-0.4406,-0.4409,-0.4408,-0.4412,-0.4411,-0.4401,-0.4421,-0.4421,-0.4421,-0.4421,0,-0.4045,-0.4058,-0.4099,-0.4111,-0.4127,-0.4157,-0.4173,-0.4194,-0.422,-0.4238,-0.4264,-0.428,-0.4317,-0.4337,-0.436,-0.4382,-0.4389,-0.4402,-0.4408,-0.44,-0.4398,-0.441,-0.441,-0.4421,-0.4421,-0.4421,-0.4421,0,-0.402,-0.4048,-0.4071,-0.4109,-0.4119,-0.4129,-0.4163,-0.4176,-0.4199,-0.422,-0.4227,-0.4263,-0.4289,-0.432,-0.4357,-0.4372,-0.4392,-0.4401,-0.4382,-0.4385,-0.4386,-0.4386,-0.4382,-0.4384,-0.4402,-0.4402,-0.4402,0,-0.4013,-0.4023,-0.4063,-0.4076,-0.4093,-0.4114,-0.413,-0.4161,-0.4177,-0.4212,-0.4222,-0.4249,-0.4273,-0.4314,-0.4344,-0.4373,-0.4383,-0.438,-0.4387,-0.4379,-0.4383,-0.4382,-0.4384,-0.4377,-0.4377,-0.4377,-0.4376,0,-0.3997,-0.401,-0.4032,-0.4059,-0.4077,-0.41,-0.4124,-0.4134,-0.417,-0.4187,-0.4214,-0.4232,-0.427,-0.4297,-0.433,-0.435,-0.437,-0.4374,-0.4376,-0.4368,-0.4356,-0.4363,-0.4377,-0.4374,-0.4374,-0.4374,-0.4374,-0.4375,-0.3981,-0.3992,-0.4022,-0.4045,-0.4067,-0.4089,-0.4103,-0.4128,-0.415,-0.4182,-0.42,-0.4226,-0.4258,-0.4303,-0.4323,-0.4345,-0.4352,-0.4355,-0.4356,-0.4356,-0.4354,-0.4353,-0.4351,-0.4352,-0.4352,-0.4352,-0.4352,0,-0.3967,-0.3987,-0.4009,-0.4041,-0.4061,-0.4077,-0.4105,-0.412,-0.4142,-0.4169,-0.4193,-0.4224,-0.4252,-0.4284,-0.4314,-0.4326,-0.4336,-0.4333,-0.4333,-0.4337,-0.4346,-0.4341,-0.4325,-0.4325,-0.4325,-0.4325,-0.4325,-0.4325,-0.3961,-0.3981,-0.3999,-0.403,-0.4052,-0.4077,-0.4091,-0.4113,-0.4135,-0.4168,-0.4191,-0.4212,-0.4242,-0.4275,-0.4301,-0.431,-0.432,-0.4315,-0.4327,-0.4334,-0.4336,-0.4339,-0.4334,-0.4317,-0.4317,-0.4316,-0.4316,-0.4316]},{"header":{"parameterUnit":"m.s-1","parameterCategory":1,"la1":30.2991,"la2":30.254,"lo1":-89.0895,"lo2":-89.0444,"dy":0.0017,"dx":0.0017,"nx":28,"ny":28,"refTime":"2025-05-25T21:00:00:Z","depth":0,"parameterNumber":3,"parameterNumberName":"V-component_of_WINDS"},"data":[0,0,0,0,0,0,0,0,0,0,0,0,0,0,0,0,0,0,0,0,0,0,0,0,0,0,0,0,0,0,0,0,0,0,0,0,0,0,0,0,0,0,0,0,0,0,0,0,0,0,0,0,0,0,0,0,0,0,3.4135,3.4135,0,3.4171,3.4171,3.4172,3.4131,3.413,3.4128,3.4127,3.4159,3.4161,3.4163,0,0,0,0,0,0,0,0,0,0,0,0,0,3.4026,3.4028,3.4135,3.4135,3.4136,3.4171,3.4172,3.4172,3.4131,3.413,3.4128,3.4126,3.4158,3.4161,3.4163,0,0,0,0,0,0,0,0,0,0,0,0,0,3.4069,3.4029,3.4135,3.412,3.4119,3.4171,3.4172,3.4172,3.4132,3.4129,3.4127,3.4125,3.4157,3.416,3.4164,3.4231,0,0,3.4174,3.4176,0,0,0,0,0,0,0,0,3.4066,3.4073,3.4122,3.4121,3.412,3.4144,3.4145,3.4192,3.4132,3.4127,3.4127,3.4124,3.4156,3.4159,3.4171,3.4232,3.4234,3.4175,3.4177,3.4178,3.4179,0,0,0,0,0,0,0,3.4064,3.4071,3.4149,3.4122,3.4121,3.411,3.4113,3.4154,3.4153,3.4127,3.4124,3.4129,3.4155,3.4167,3.4171,3.4234,3.4174,3.4178,3.418,3.4181,3.4353,3.4355,0,0,0,0,0,0,3.4063,3.4069,3.4148,3.415,3.4087,3.4114,3.4118,3.4139,3.4153,3.4153,3.4131,3.4127,3.4163,3.4167,3.4172,3.4252,3.4178,3.4181,3.4183,3.435,3.4353,3.4356,0,0,0,0,0,0,3.4061,3.407,3.4146,3.4109,3.4118,3.4118,3.4142,3.4141,3.4153,3.4156,3.4155,3.4145,3.4161,3.4167,3.4217,3.4252,3.4183,3.4186,3.4347,3.4351,3.4355,3.4412,0,0,0,0,0,0,3.4058,3.407,3.4096,3.411,3.412,3.4192,3.4144,3.4143,3.416,3.4155,3.4169,3.4168,3.416,3.4212,3.422,3.4256,3.4189,3.4344,3.4349,3.4354,3.4407,3.4417,3.4426,0,0,0,0,0,3.4054,3.411,3.4098,3.4108,3.4153,3.4194,3.42,3.419,3.4163,3.4189,3.4191,3.4168,3.4247,3.4218,3.4226,3.4264,3.4342,3.4348,3.4353,3.4403,3.4415,3.4426,0,0,0,0,0,0,3.4098,3.4111,3.4098,3.416,3.4177,3.4187,3.422,3.4204,3.4227,3.4221,3.4207,3.421,3.4263,3.4268,3.4235,3.4329,3.429,3.4298,3.4324,3.4336,3.4346,3.4343,3.4191,0,0,0,0,0,3.4115,3.4149,3.4158,3.4212,3.4221,3.4219,3.4237,3.4228,3.4244,3.425,3.4255,3.4271,3.4299,3.4318,3.4344,3.4407,3.4409,3.4437,3.4447,3.4455,3.4461,3.4496,3.4508,3.4375,3.4375,3.4375,0,0,3.415,3.4162,3.4184,3.4221,3.4233,3.4267,3.4225,3.4263,3.4288,3.4255,3.4304,3.4308,3.4324,3.4381,3.4406,3.4387,3.4499,3.4462,3.4468,3.4471,3.4503,3.4516,3.4527,3.4379,3.4378,3.4377,0,0,3.4233,3.4245,3.4291,3.4305,3.4324,3.4323,3.4334,3.4348,3.435,3.4398,3.4375,3.4403,3.4452,3.4465,3.4478,3.4566,3.4546,3.4575,3.4625,3.4658,3.4669,3.4678,3.471,3.4722,3.4581,3.4582,3.4582,0,3.4274,3.4326,3.4317,3.4357,3.4374,3.4348,3.4395,3.4407,3.4433,3.4445,3.4423,3.4485,3.4493,3.4554,3.4575,3.4586,3.4598,3.4573,3.4669,3.4678,3.4686,3.4716,3.4728,3.4585,3.4585,3.4584,3.4584,0,3.4376,3.4413,3.4448,3.4476,3.4497,3.454,3.4536,3.4558,3.4547,3.4548,3.4597,3.4607,3.4635,3.4649,3.4638,3.4708,3.4695,3.4671,3.4631,3.4703,3.4731,3.4742,3.459,3.4589,3.4588,3.4587,0,0,3.4486,3.451,3.4523,3.4536,3.4556,3.4584,3.4625,3.4655,3.4674,3.4693,3.4727,3.477,3.4748,3.4763,3.4753,3.4783,3.4853,3.4755,3.4755,3.4773,3.493,3.4949,3.4962,3.4839,3.4842,3.4843,3.4929,0,3.4569,3.4644,3.4637,3.4707,3.4741,3.4717,3.4753,3.4769,3.4771,3.4798,3.4799,3.483,3.4799,3.4808,3.4836,3.4838,3.4884,3.4832,3.487,3.4872,3.4868,3.4977,3.4996,3.5077,3.494,3.4942,3.4943,0,3.4676,3.4702,3.4776,3.4792,3.4806,3.4839,3.4866,3.4893,3.4909,3.4908,3.4926,3.4911,3.4952,3.4912,3.4967,3.4932,3.4947,3.4951,3.4954,3.4957,3.4912,3.4983,3.5102,3.5114,3.496,3.4959,3.4958,0,3.475,3.4802,3.4854,3.4866,3.4885,3.4909,3.4918,3.4933,3.4951,3.4974,3.4986,3.5012,3.5027,3.5047,3.504,3.5011,3.5097,3.5056,3.5097,3.5097,3.5116,3.5115,3.524,3.5126,3.5126,3.5125,3.5125,0,3.4844,3.489,3.4888,3.492,3.4971,3.4962,3.5012,3.5018,3.5031,3.5063,3.5043,3.5072,3.5061,3.5089,3.5084,3.5131,3.5137,3.5137,3.5135,3.514,3.514,3.5149,3.5144,3.5129,3.5128,3.5127,3.5127,0,3.4935,3.4935,3.499,3.5005,3.501,3.5047,3.5059,3.5088,3.5089,3.5129,3.5137,3.5138,3.5171,3.5166,3.5201,3.5197,3.5257,3.5248,3.5252,3.525,3.5292,3.5288,3.5427,3.5445,3.5319,3.532,3.5321,0,3.4995,3.5031,3.5051,3.5071,3.5083,3.5116,3.5135,3.5127,3.5148,3.5171,3.5197,3.5228,3.5253,3.5306,3.5309,3.5336,3.5328,3.5374,3.5332,3.5335,3.5329,3.5327,3.5331,3.5383,3.5384,3.5386,3.5387,0,3.5102,3.5101,3.5131,3.5161,3.5186,3.5208,3.5229,3.5246,3.524,3.5264,3.5299,3.5318,3.5356,3.5387,3.5413,3.542,3.5403,3.54,3.5411,3.5416,3.5417,3.5418,3.5276,3.5397,3.5396,3.5395,3.5395,3.5394,3.518,3.5211,3.5231,3.5264,3.528,3.53,3.5328,3.5334,3.5363,3.5394,3.5387,3.5426,3.5442,3.5475,3.5485,3.5515,3.5497,3.5513,3.5517,3.5521,3.5527,3.5413,3.5519,3.5519,3.5519,3.5518,3.5518,0,3.5287,3.5299,3.533,3.5361,3.5387,3.537,3.5392,3.5415,3.545,3.5467,3.5493,3.5533,3.5563,3.5569,3.5597,3.562,3.5612,3.5628,3.5626,3.5628,3.554,3.5528,3.5633,3.5633,3.5633,3.5633,3.5633,3.5633,3.5346,3.5398,3.5399,3.5458,3.5468,3.5508,3.5522,3.554,3.5554,3.56,3.5626,3.563,3.5642,3.5672,3.5699,3.57,3.5711,3.573,3.5728,3.5646,3.5634,3.5623,3.5612,3.5732,3.5733,3.5813,3.5813,3.5814]}]]